STARLINK-5367, 55501

Orbit data source: Space-Track

STARLINK-5367, 55501 is a payload satellite owned by SpaceX/Seattle (US) in LEO that was launched on Thu, 02 Feb 2023 UTC via an FALCON 9 launch vehicle from the Air Force Eastern Test Range (AFETR). Payload-class satellites include a variety of spacecraft equipped with specific instruments for various scientific and technological missions. These include communications satellites like Starlink; space stations such as the ISS; scientific satellites like the Hubble; Earth observation satellites from companies like Planet Labs, Umbra, and HawkEye 360; GPS; miniature CubeSats for education and research; and military/defense satellites.

Loading next visibility...
Identifier
55501, 2023-015BE
Orbit
LEO
Country
Flag of USUS
Related business
Manufacturer
SpaceX/Seattle
Mission
Operational Commercial Communications
Bus & Motor
STARLINK, Unknown motor
Mass
305 kg wet, ~290 kg dry
Launch date (UTC)
2023-02-02 (4 years ago)
Launch vehicle
FALCON 9
Launch site
Air Force Eastern Test Range (AFETR)
Object type
Payload
Rocket body
Debris
Shape & HBR
Box + 1 Pan, 10.1 m
Radar Cross Section
13.562 m², Large (>1 m²)

Expand to show TLE details & history
Last TLE update: 8 hours ago

TLE from 8 hours ago
0 STARLINK-5367
1 55501U 23015BE  26258.52514866  .00000521  00000-0  28446-4 0  9993
2 55501  43.0047 348.0074 0001536 272.8586  87.2090 15.27582798199622
Epoch: 2026-09-15T12:36Z
TLE epoch observation values (Epoch: 2026-09-15T12:36:12.844Z)
Latitude
Longitude
164.46404°
Altitude
482.766 km
Speed
7.626 km/s
True Right ascension
23h 12m 01s
True Declination
0° 00' 00"
Sunlit
Object was in full shadow at epoch
Visualization orbit readout
Latitude
Unknown
Longitude
Unknown
Altitude
Unknown
Speed
Unknown
Apparent Right ascension
Unknown
Apparent Declination
Unknown
Sunlit
N/A
Visualization observer readout
Local Sidereal Time
12:58:08
Azimuth
Unknown
Elevation
Unknown
Doppler factor
Unknown
Orbital elements
Apogee altitude
486.039 km
Perigee altitude
483.931 km
Semi-major axis
6,863.122 km
Eccentricity
0.00015
Inclination
43.0047°
RAAN
348.0074°
Arg. of periapsis
272.8586°
True anomaly
87.22658°
Mean anomaly
87.209°
Eccentric anomaly
87.21779°
Mean motion
3.81734 °/min
Orbital period
94.31 mins
BSTAR
0.000028446
Loading maneuver chart data...
Computing Atmospheric mass density...
Loading historical data...
Loading historical data...
Loading historical data...
Loading historical data...
Loading historical data...
Loading historical data...
Loading historical data...

Documentation

Showing up to 5 results
|